Theta_e
316 316 318 320 323 326 326 327 326 326 326 324 324 324 324 326 328 329 329 329 328 327 325 325 324 322 320 320 319 318 317 316 318 319 318 315 314 314 314 315 313 312 309
308 313 316 317 319 323 325 326 327 327 326 327 327 327 328 330 330 330 330 329 328 328 327 326 324 323 321 320 319 318 317 318 318 316 313 310 312 313 312 313 308 308 304
308 306 307 313 317 318 322 325 327 327 328 328 326 325 327 327 328 328 328 329 329 329 328 328 328 325 323 322 320 319 318 316 314 314 314 310 306 308 309 310 306 304 301
299 304 304 304 309 315 319 323 326 327 328 329 327 326 326 325 327 328 328 328 328 328 327 327 328 326 324 322 320 319 318 317 313 312 312 312 311 303 300 306 304 301 298
295 297 299 303 305 308 314 319 323 325 327 328 328 327 327 328 328 327 323 320 321 324 324 325 324 321 319 318 317 316 315 315 314 312 309 307 304 305 301 296 298 297 297
293 294 294 295 298 300 304 310 318 322 325 326 328 327 327 326 324 321 317 317 314 313 313 314 314 313 312 310 308 307 307 307 305 304 304 303 300 299 296 294 293 291 295
294 293 293 294 296 300 301 302 305 314 322 325 326 327 327 326 324 321 318 312 309 309 307 307 306 305 304 302 301 300 299 299 298 297 295 296 295 296 295 293 290 290 292
292 293 294 295 296 300 302 302 301 301 308 323 324 326 326 326 324 322 317 314 309 305 302 300 300 298 297 296 296 295 294 293 293 293 293 292 292 292 292 291 289 287 288
292 292 293 295 297 299 301 302 301 300 300 305 320 323 324 323 320 315 313 307 302 299 297 297 295 294 293 293 292 292 291 291 291 291 291 290 290 290 290 290 290 288 285
292 292 294 295 297 299 301 302 301 301 302 304 308 316 321 318 313 309 304 302 297 295 294 293 292 291 291 291 291 290 289 289 289 289 288 288 288 288 289 288 288 288 286
292 293 294 295 296 297 299 300 300 300 301 304 305 308 310 309 306 305 301 299 295 293 292 291 290 289 289 289 289 288 288 287 287 287 287 286 287 287 287 287 287 286 286
293 293 294 295 295 296 297 298 297 297 298 301 301 301 301 301 301 300 297 295 292 292 290 290 289 288 288 288 288 287 287 286 286 285 285 285 285 285 286 286 285 285 286
293 293 293 293 294 294 294 294 294 295 295 297 298 296 296 298 297 294 293 292 290 289 288 288 287 287 287 287 287 286 286 285 285 285 284 284 285 284 285 285 285 285 285
293 293 293 293 293 293 293 293 294 294 293 295 295 294 293 294 293 291 290 289 289 288 287 287 286 286 286 286 286 285 285 284 284 284 285 285 284 284 285 284 285 285 285
292 293 293 293 293 292 292 292 293 292 292 292 293 292 291 291 289 288 287 287 287 286 286 285 285 285 286 285 285 285 284 284 283 284 284 285 285 285 286 285 285 285 284
293 293 293 293 293 293 293 292 292 291 291 291 292 289 288 287 287 286 285 286 285 285 285 284 284 284 285 288 287 285 284 284 283 283 284 284 284 285 285 285 286 286 284
293 293 294 295 295 294 294 293 292 289 289 290 287 287 286 286 286 285 285 284 284 284 283 283 283 284 286 289 288 286 284 284 284 283 283 283 283 284 284 285 285 285 286
292 294 295 295 295 294 293 292 290 288 287 286 286 285 286 285 284 284 284 283 283 283 282 282 283 284 285 289 288 286 284 284 284 284 284 284 284 284 284 284 284 284 284
293 294 295 295 294 293 293 290 287 287 286 286 286 286 286 284 283 283 282 282 282 282 282 282 282 283 284 288 288 286 284 283 283 284 284 284 284 284 285 284 281 282 283
291 293 294 294 293 292 291 289 287 287 286 287 286 285 285 285 284 284 282 282 283 282 282 282 282 282 283 288 288 287 284 283 283 283 283 282 283 285 285 283 283 282 283
289 290 291 292 292 289 289 288 287 287 288 287 285 284 284 285 284 283 282 282 282 281 281 281 280 280 281 283 287 288 284 284 283 282 282 283 284 285 285 286 284 283 284
287 287 287 288 289 287 287 286 286 287 285 285 284 284 284 284 283 283 281 281 281 280 279 278 277 278 279 281 286 287 287 286 283 281 282 282 284 284 286 286 285 285 284
285 284 282 284 286 283 286 285 284 284 284 284 284 283 283 283 283 282 280 280 280 279 278 278 277 277 278 279 283 285 286 286 282 282 282 283 284 285 284 283 283 279 280
280 279 280 280 279 279 281 282 283 283 283 283 283 282 282 281 281 282 281 280 279 278 278 278 278 278 277 277 279 280 283 283 283 283 282 282 283 282 280 276 277 276 277
279 278 278 278 279 277 278 277 280 282 282 282 280 280 281 280 280 280 280 280 281 281 279 280 280 278 277 278 280 279 278 278 279 278 277 278 275 275 274 273 272 273 273
276 277 276 275 277 274 274 274 277 281 281 279 279 280 280 280 279 278 277 280 281 283 283 282 281 278 280 282 282 282 282 282 283 276 274 273 272 272 271 270 270 271 270
Wind_Speed
8 7 10 11 10 10 10 11 11 11 8 5 5 4 6 6 5 5 7 7 7 7 6 4 5 4 3 3 3 1 1 0 2 3 3 2 3 4 4 4 5 7 9
7 8 10 11 12 14 14 12 13 11 10 7 5 3 5 5 6 7 8 8 8 7 6 6 5 5 3 3 3 3 2 1 2 1 1 2 2 2 5 5 6 7 8
13 10 9 12 12 13 14 15 15 14 12 12 5 3 3 1 3 3 4 6 8 8 6 5 5 5 4 3 4 4 4 2 2 2 0 1 2 3 2 3 5 7 7
9 10 12 11 14 16 13 13 13 14 13 14 11 12 10 9 7 7 5 4 5 5 5 5 5 4 3 4 3 3 2 2 3 2 2 4 1 1 4 1 3 8 8
14 15 15 14 13 10 12 14 14 15 14 15 15 12 11 8 5 4 7 5 3 4 4 5 5 5 3 4 5 4 4 2 3 2 2 2 2 1 2 4 4 5 6
13 12 8 8 11 8 10 10 13 14 13 14 16 16 15 11 7 6 6 5 4 4 4 6 5 5 5 5 4 5 6 5 6 5 4 3 2 2 1 2 2 3 4
9 12 12 13 12 13 11 9 11 12 13 14 14 15 15 14 13 12 9 9 6 4 6 6 6 4 6 6 6 7 6 6 6 6 5 5 4 2 1 0 1 2 2
8 10 13 11 10 10 10 10 11 10 11 13 13 13 13 9 8 10 9 8 7 6 7 7 7 7 8 8 7 6 6 7 6 8 6 6 4 4 2 2 1 1 2
9 11 7 8 8 8 10 10 8 7 7 10 8 10 9 10 9 10 8 7 9 8 9 8 9 8 9 8 8 6 7 7 6 6 7 6 5 4 4 3 3 2 3
4 7 7 8 7 8 8 7 6 7 6 7 7 6 8 8 9 11 11 10 10 11 11 9 10 10 9 8 8 7 7 8 5 5 7 6 5 5 5 4 4 3 1
8 7 7 7 7 5 5 5 6 6 6 6 5 7 7 8 8 9 11 11 10 12 12 10 11 10 10 8 8 7 8 9 7 6 7 7 6 5 5 4 4 4 3
7 5 5 6 8 8 7 7 6 5 5 5 6 6 7 10 10 10 11 12 12 9 12 10 10 9 8 7 8 9 7 8 8 7 7 7 5 6 5 4 5 4 3
5 4 4 5 5 5 6 6 6 6 6 6 7 6 7 9 9 10 10 10 12 13 11 10 11 10 8 8 7 8 8 8 7 7 7 7 7 6 4 4 3 3 3
5 5 5 7 6 7 7 7 7 7 7 7 8 9 8 9 10 10 10 11 11 15 12 9 10 9 8 8 8 8 8 8 6 7 7 7 7 6 4 3 2 2 3
7 7 7 8 8 8 7 7 7 8 8 8 8 8 7 8 9 10 9 10 10 11 11 11 8 8 8 6 8 8 8 8 8 7 6 6 6 6 3 2 2 3 2
9 7 9 9 11 11 10 8 8 8 7 8 8 8 9 9 9 9 10 10 9 11 11 10 10 9 5 14 13 10 7 7 7 7 6 5 5 4 3 3 4 3 3
9 10 13 14 12 13 11 11 9 7 8 7 7 8 9 10 11 11 11 10 11 11 10 10 9 9 8 16 15 14 6 7 6 6 6 5 3 4 3 2 0 1 7
9 11 8 8 6 6 9 8 10 11 10 9 10 10 11 11 11 12 11 10 9 10 10 9 8 9 7 16 15 13 6 5 5 6 6 5 5 4 4 3 3 3 2
5 7 7 7 7 10 10 10 9 11 11 12 12 13 14 14 13 12 11 9 9 8 8 8 9 10 8 17 15 12 6 5 5 5 5 5 5 5 4 3 4 3 3
3 6 6 4 7 8 10 12 11 11 14 14 14 14 14 15 16 15 13 8 9 9 8 8 7 8 9 15 15 12 5 6 4 3 4 7 6 7 6 3 4 4 6
7 6 3 5 6 6 10 12 11 16 13 10 11 12 13 13 12 11 8 10 9 9 8 8 6 6 7 8 15 16 6 5 5 5 4 3 7 7 8 9 3 4 6
7 7 6 4 3 7 7 6 10 6 7 10 11 12 12 10 10 14 10 10 11 10 9 8 6 4 5 9 14 14 13 10 6 5 4 4 8 8 10 8 7 11 10
5 5 4 4 1 4 6 7 5 8 9 10 11 11 11 10 11 12 12 9 9 9 9 8 6 6 5 4 13 13 13 13 6 4 6 9 9 8 4 3 6 5 4
5 4 6 5 4 2 2 3 6 8 10 10 11 11 12 11 11 9 10 10 10 9 8 8 7 6 6 6 5 5 7 10 7 6 4 4 5 2 1 1 2 2 3
4 4 5 4 5 3 2 2 5 8 9 8 8 9 9 11 10 8 9 9 8 11 11 9 8 9 7 9 13 11 7 5 6 3 1 2 2 2 2 2 2 3 3
4 4 4 4 5 3 2 2 2 5 7 7 7 8 8 9 8 9 7 5 9 14 13 11 9 3 4 13 19 18 15 13 13 3 4 4 4 5 3 3 4 3 2
Wind_Direction
220 184 197 198 189 190 190 195 188 193 173 175 183 201 207 203 210 203 197 192 195 193 203 192 192 184 190 205 187 163 144 133 335 346 341 35 49 116 49 81 62 44 25
211 203 203 195 195 202 197 192 196 190 191 197 192 182 187 207 209 196 200 189 193 193 203 202 184 191 185 194 184 183 160 116 44 52 229 345 1 343 49 52 38 42 9
223 217 209 208 206 204 197 198 198 191 191 192 167 136 151 125 183 195 187 195 195 203 189 188 193 190 187 192 185 182 187 167 87 103 162 321 317 322 20 58 41 18 3
223 219 211 210 209 213 202 200 198 198 194 186 188 194 198 196 202 192 186 185 185 176 173 178 184 168 162 167 163 165 158 137 137 114 53 41 68 219 314 14 41 0 357
214 218 216 211 213 205 198 198 199 200 195 190 195 198 206 208 196 166 138 124 115 131 138 139 135 125 118 122 128 117 107 121 144 131 137 111 76 147 220 271 324 354 341
216 220 210 205 220 195 197 194 197 203 195 193 199 201 206 199 180 151 149 160 131 119 107 105 111 112 110 105 103 106 107 109 100 100 118 133 138 168 191 259 295 310 308
216 216 207 210 214 197 193 185 185 201 197 198 201 205 207 198 194 173 166 156 145 163 143 130 123 114 116 108 117 109 106 108 114 114 97 89 84 97 143 169 353 316 309
237 229 223 217 209 196 184 186 184 194 195 204 204 205 206 201 193 183 168 160 153 146 131 120 122 123 120 121 116 105 109 105 101 111 103 103 91 77 76 99 31 348 330
233 234 219 202 184 186 189 186 181 193 197 200 208 200 199 193 174 159 154 148 133 136 131 135 132 127 118 120 123 120 115 110 109 106 112 105 92 84 82 86 76 55 354
264 238 221 207 194 182 173 184 187 192 188 201 204 197 194 174 162 153 149 153 142 138 135 139 133 120 124 126 120 112 114 112 107 114 111 103 96 96 87 86 88 81 105
245 241 217 190 175 145 165 171 177 181 189 188 191 174 163 154 154 159 148 151 142 145 137 144 133 135 136 135 125 122 129 122 118 110 110 101 112 100 90 87 90 74 43
279 241 221 188 173 174 171 186 185 185 187 172 166 168 154 152 154 158 147 150 145 144 137 139 130 131 134 134 135 134 135 131 125 124 117 118 112 98 96 86 71 65 48
257 210 192 201 200 176 169 176 187 193 180 164 160 147 155 156 154 148 144 145 146 140 127 133 142 142 146 139 132 133 132 122 131 143 128 136 122 111 106 97 74 49 24
238 220 202 208 205 199 187 185 194 184 173 164 160 161 164 159 152 147 145 137 153 136 134 143 143 142 139 136 133 138 130 125 135 133 140 136 134 123 104 103 82 43 10
242 229 220 209 206 204 198 190 188 178 170 165 163 159 141 133 131 136 138 131 147 134 135 136 132 130 137 141 145 139 142 147 145 143 150 142 134 125 117 115 81 36 1
237 225 226 218 216 208 201 192 190 183 167 162 161 139 133 130 135 132 136 140 139 130 133 138 144 143 140 153 153 144 149 154 153 158 162 152 140 156 119 74 34 21 336
226 218 221 219 213 206 189 194 181 154 166 153 137 139 142 145 148 143 146 148 150 143 145 146 146 145 149 155 157 158 154 158 166 162 157 157 165 174 177 209 306 344 310
224 230 230 229 217 182 185 169 160 169 165 158 153 151 156 156 154 158 160 152 152 152 151 151 155 150 160 162 159 159 156 163 164 178 166 166 174 197 199 213 225 234 279
265 237 216 202 178 186 176 166 166 167 167 179 175 172 166 161 163 165 162 157 153 151 159 159 159 160 164 170 168 162 161 167 182 175 178 184 195 218 259 228 240 255 266
324 299 270 213 187 184 166 168 179 173 191 189 181 174 171 169 171 169 166 157 158 156 155 154 167 163 161 178 182 173 164 176 189 191 206 212 212 227 251 228 250 271 268
342 344 340 236 227 166 169 187 178 198 195 171 166 170 173 172 169 158 155 153 153 147 151 153 151 151 161 183 190 193 183 192 176 199 202 212 233 243 259 259 203 262 272
351 358 344 311 209 172 172 185 201 181 149 160 165 172 169 164 160 160 153 154 153 155 156 150 151 166 168 186 194 198 201 196 187 194 198 216 241 250 251 259 249 280 294
351 345 338 328 294 175 168 178 194 152 153 158 169 170 167 165 165 160 157 153 158 161 163 169 171 177 178 189 195 198 203 206 190 186 210 230 243 255 282 294 285 297 261
352 345 356 354 316 301 144 170 158 149 159 170 171 169 173 167 168 168 169 166 171 169 168 172 177 174 174 185 193 196 195 213 211 212 233 243 254 232 206 331 296 286 270
343 358 360 345 328 319 275 218 156 151 164 166 167 172 176 178 171 177 176 175 182 180 173 183 176 169 191 205 195 184 183 190 207 176 200 211 225 231 252 266 263 269 271
349 355 354 355 336 327 276 233 156 160 156 155 166 177 173 177 175 164 141 162 169 167 178 172 170 177 165 185 190 192 196 202 215 155 188 202 213 227 231 248 270 261 264